Location: Wildlife_Club
(35.6000°N, 81.4330°W)
Time: 14:58:41
(UTC-04:00)

A-11 Canister half - Pass Details

Date: 28 June 2019
Orbit: 1514 x 1685 km, 47.2° (Epoch: 20 July)

Event Time Altitude Azimuth Distance (km) Brightness Sun altitude
Rises 19:29:30 0° 284° (WNW) 4,728 13.6 13.2°
Reaches altitude 10° 19:36:35 10° 248° (WSW) 3,698 11.9 11.9°
Maximum altitude 19:37:59 10° 239° (WSW) 3,658 11.7 11.6°
Drops below altitude 10° 19:39:23 10° 230° (SW) 3,684 11.5 11.3°
Sets 19:46:25 0° 194° (SSW) 4,641 11.4 10.0°
